QPF
0.00 0.00 0.00 0.00 0.00 0.00 0.00 0.00 0.01 0.01 0.01 0.02 0.02 0.02 0.02 0.02 0.01 0.02 0.04 0.04 0.02 0.02 0.03 0.05 0.07 0.07 0.09 0.11 0.13 0.12 0.15 0.17 0.18 0.17 0.12 0.15 0.16 0.13 0.13 0.11 0.09 0.06 0.05
0.00 0.00 0.00 0.00 0.00 0.00 0.00 0.00 0.00 0.00 0.01 0.02 0.02 0.02 0.03 0.03 0.02 0.04 0.05 0.06 0.03 0.02 0.03 0.05 0.06 0.06 0.07 0.09 0.11 0.11 0.13 0.17 0.17 0.13 0.11 0.11 0.12 0.12 0.12 0.10 0.08 0.05 0.05
0.00 0.00 0.00 0.00 0.00 0.00 0.00 0.00 0.00 0.00 0.01 0.01 0.02 0.02 0.02 0.02 0.01 0.03 0.05 0.07 0.07 0.04 0.03 0.04 0.06 0.06 0.07 0.11 0.10 0.11 0.11 0.13 0.12 0.10 0.09 0.09 0.09 0.09 0.10 0.10 0.08 0.06 0.06
0.00 0.00 0.00 0.00 0.00 0.00 0.00 0.01 0.01 0.01 0.02 0.02 0.02 0.03 0.03 0.03 0.02 0.02 0.03 0.05 0.10 0.10 0.05 0.03 0.04 0.06 0.07 0.10 0.09 0.10 0.10 0.09 0.09 0.08 0.08 0.07 0.07 0.06 0.08 0.10 0.09 0.09 0.09
0.00 0.00 0.00 0.00 0.00 0.01 0.01 0.01 0.01 0.02 0.03 0.03 0.03 0.03 0.03 0.04 0.04 0.03 0.04 0.05 0.10 0.12 0.09 0.04 0.02 0.03 0.05 0.08 0.08 0.10 0.09 0.08 0.07 0.06 0.06 0.05 0.05 0.05 0.06 0.08 0.07 0.09 0.10
0.00 0.00 0.00 0.01 0.01 0.01 0.02 0.02 0.03 0.03 0.03 0.03 0.02 0.03 0.04 0.03 0.05 0.06 0.06 0.07 0.13 0.15 0.12 0.08 0.05 0.03 0.03 0.06 0.07 0.09 0.09 0.08 0.08 0.07 0.07 0.05 0.04 0.04 0.04 0.05 0.05 0.07 0.08
0.00 0.00 0.01 0.01 0.02 0.03 0.03 0.03 0.04 0.05 0.05 0.04 0.04 0.05 0.04 0.03 0.05 0.06 0.06 0.08 0.11 0.18 0.17 0.10 0.09 0.08 0.05 0.04 0.04 0.05 0.09 0.09 0.10 0.09 0.09 0.08 0.06 0.05 0.05 0.04 0.04 0.04 0.05
0.00 0.00 0.00 0.01 0.02 0.03 0.04 0.04 0.06 0.06 0.05 0.05 0.05 0.06 0.06 0.05 0.04 0.04 0.06 0.07 0.11 0.20 0.21 0.12 0.08 0.08 0.10 0.11 0.04 0.03 0.05 0.08 0.11 0.12 0.11 0.10 0.08 0.06 0.06 0.05 0.04 0.03 0.03
0.00 0.00 0.00 0.00 0.01 0.02 0.03 0.04 0.06 0.06 0.06 0.07 0.05 0.06 0.08 0.08 0.08 0.05 0.05 0.06 0.09 0.15 0.16 0.11 0.10 0.09 0.10 0.13 0.11 0.04 0.03 0.04 0.07 0.10 0.11 0.11 0.09 0.08 0.06 0.06 0.05 0.05 0.04
0.00 0.00 0.00 0.00 0.01 0.01 0.02 0.04 0.05 0.07 0.08 0.08 0.06 0.05 0.07 0.09 0.10 0.09 0.06 0.05 0.05 0.08 0.11 0.09 0.10 0.09 0.09 0.12 0.12 0.06 0.03 0.02 0.05 0.09 0.11 0.13 0.11 0.08 0.06 0.05 0.05 0.05 0.04
0.00 0.00 0.00 0.00 0.01 0.01 0.02 0.03 0.04 0.07 0.08 0.08 0.08 0.06 0.06 0.08 0.08 0.10 0.10 0.08 0.07 0.05 0.07 0.09 0.12 0.10 0.10 0.10 0.13 0.10 0.05 0.02 0.03 0.06 0.09 0.12 0.12 0.11 0.08 0.07 0.06 0.05 0.04
0.00 0.00 0.00 0.00 0.01 0.01 0.02 0.03 0.05 0.07 0.07 0.08 0.08 0.07 0.08 0.07 0.06 0.08 0.10 0.10 0.10 0.06 0.05 0.08 0.10 0.10 0.11 0.11 0.09 0.10 0.07 0.04 0.03 0.04 0.05 0.07 0.09 0.11 0.11 0.10 0.07 0.06 0.06
0.00 0.01 0.01 0.01 0.01 0.02 0.02 0.03 0.04 0.06 0.06 0.06 0.06 0.07 0.07 0.05 0.06 0.08 0.11 0.10 0.10 0.08 0.07 0.07 0.08 0.10 0.07 0.12 0.09 0.08 0.05 0.03 0.03 0.02 0.03 0.05 0.06 0.07 0.10 0.12 0.11 0.09 0.08
0.01 0.01 0.01 0.01 0.02 0.02 0.02 0.03 0.03 0.03 0.04 0.05 0.04 0.05 0.05 0.03 0.04 0.07 0.09 0.10 0.10 0.09 0.10 0.08 0.07 0.08 0.06 0.09 0.10 0.07 0.05 0.04 0.03 0.02 0.01 0.03 0.04 0.05 0.06 0.08 0.10 0.11 0.11
0.01 0.00 0.00 0.01 0.01 0.02 0.02 0.03 0.04 0.04 0.04 0.05 0.05 0.05 0.04 0.04 0.04 0.05 0.06 0.08 0.09 0.10 0.11 0.11 0.08 0.06 0.05 0.05 0.08 0.08 0.08 0.05 0.03 0.02 0.01 0.02 0.02 0.02 0.02 0.02 0.04 0.04 0.06
0.00 0.00 0.01 0.01 0.02 0.02 0.01 0.02 0.03 0.04 0.04 0.05 0.04 0.04 0.06 0.06 0.06 0.05 0.06 0.06 0.07 0.09 0.10 0.12 0.09 0.06 0.05 0.03 0.06 0.09 0.08 0.07 0.04 0.02 0.02 0.02 0.02 0.02 0.02 0.01 0.01 0.01 0.01
0.01 0.01 0.02 0.01 0.01 0.02 0.02 0.02 0.03 0.03 0.04 0.05 0.04 0.04 0.07 0.07 0.06 0.07 0.07 0.06 0.07 0.07 0.08 0.11 0.11 0.09 0.08 0.05 0.06 0.10 0.09 0.07 0.05 0.03 0.02 0.02 0.02 0.02 0.02 0.02 0.02 0.01 0.01
0.01 0.01 0.02 0.01 0.00 0.00 0.02 0.02 0.02 0.02 0.04 0.04 0.04 0.05 0.05 0.04 0.05 0.07 0.08 0.07 0.07 0.07 0.08 0.09 0.09 0.10 0.10 0.09 0.06 0.07 0.09 0.07 0.08 0.04 0.03 0.02 0.02 0.02 0.02 0.01 0.02 0.02 0.01
0.01 0.01 0.02 0.02 0.00 0.00 0.01 0.02 0.02 0.01 0.02 0.02 0.02 0.03 0.04 0.04 0.06 0.07 0.07 0.06 0.07 0.06 0.07 0.07 0.09 0.09 0.09 0.10 0.10 0.08 0.07 0.08 0.07 0.05 0.04 0.03 0.02 0.02 0.02 0.02 0.02 0.02 0.01
0.01 0.01 0.03 0.02 0.01 0.01 0.02 0.02 0.01 0.00 0.01 0.01 0.02 0.02 0.03 0.04 0.06 0.07 0.06 0.06 0.06 0.07 0.07 0.08 0.08 0.07 0.07 0.09 0.10 0.09 0.07 0.07 0.06 0.05 0.05 0.04 0.03 0.02 0.02 0.02 0.02 0.02 0.02
0.01 0.01 0.02 0.03 0.02 0.01 0.01 0.01 0.00 0.01 0.01 0.02 0.02 0.02 0.01 0.02 0.02 0.02 0.03 0.05 0.06 0.08 0.08 0.07 0.07 0.07 0.05 0.06 0.06 0.06 0.06 0.07 0.07 0.06 0.05 0.06 0.05 0.03 0.03 0.03 0.02 0.02 0.02
0.01 0.01 0.01 0.02 0.03 0.03 0.01 0.00 0.00 0.01 0.01 0.02 0.02 0.01 0.01 0.01 0.01 0.01 0.01 0.01 0.02 0.04 0.06 0.07 0.06 0.05 0.05 0.05 0.06 0.04 0.04 0.05 0.06 0.07 0.08 0.07 0.08 0.09 0.07 0.04 0.03 0.02 0.02
0.01 0.01 0.01 0.02 0.02 0.03 0.02 0.00 0.00 0.01 0.01 0.01 0.01 0.01 0.00 0.01 0.01 0.01 0.01 0.01 0.01 0.01 0.02 0.06 0.06 0.06 0.07 0.08 0.07 0.06 0.05 0.05 0.05 0.05 0.08 0.10 0.08 0.08 0.07 0.06 0.06 0.04 0.02
0.00 0.01 0.02 0.03 0.03 0.03 0.02 0.01 0.01 0.01 0.00 0.00 0.00 0.00 0.00 0.01 0.01 0.01 0.01 0.02 0.02 0.02 0.02 0.03 0.05 0.05 0.06 0.09 0.09 0.08 0.07 0.06 0.05 0.04 0.06 0.08 0.07 0.05 0.04 0.04 0.05 0.05 0.04
0.00 0.00 0.01 0.02 0.04 0.05 0.04 0.03 0.02 0.01 0.00 0.00 0.00 0.00 0.00 0.01 0.02 0.02 0.01 0.01 0.02 0.02 0.02 0.03 0.03 0.04 0.05 0.06 0.08 0.08 0.08 0.06 0.06 0.05 0.05 0.05 0.05 0.04 0.03 0.03 0.04 0.04 0.03
0.00 0.00 0.01 0.01 0.02 0.04 0.05 0.04 0.02 0.01 0.01 0.01 0.01 0.01 0.00 0.01 0.02 0.03 0.03 0.03 0.02 0.03 0.02 0.02 0.03 0.02 0.02 0.03 0.04 0.06 0.06 0.06 0.06 0.05 0.04 0.04 0.04 0.04 0.03 0.03 0.03 0.03 0.02
MSLP
1012.84 1012.82 1012.73 1012.60 1012.44 1012.27 1012.09 1011.90 1011.70 1011.47 1011.23 1010.97 1010.71 1010.49 1010.30 1010.18 1010.14 1010.16 1010.25 1010.38 1010.54 1010.73 1010.93 1011.16 1011.40 1011.67 1011.96 1012.25 1012.53 1012.79 1013.01 1013.20 1013.35 1013.48 1013.61 1013.75 1013.93 1014.15 1014.40 1014.68 1014.97 1015.28 1015.59
1012.87 1012.85 1012.79 1012.70 1012.58 1012.45 1012.29 1012.10 1011.88 1011.61 1011.32 1011.02 1010.74 1010.50 1010.32 1010.22 1010.20 1010.25 1010.35 1010.48 1010.62 1010.78 1010.94 1011.13 1011.35 1011.60 1011.89 1012.22 1012.54 1012.86 1013.14 1013.38 1013.58 1013.74 1013.90 1014.05 1014.23 1014.43 1014.68 1014.95 1015.24 1015.55 1015.86
1012.89 1012.88 1012.85 1012.81 1012.75 1012.67 1012.55 1012.37 1012.14 1011.85 1011.53 1011.20 1010.89 1010.64 1010.46 1010.38 1010.37 1010.43 1010.53 1010.64 1010.75 1010.86 1010.97 1011.10 1011.28 1011.51 1011.80 1012.13 1012.49 1012.85 1013.19 1013.48 1013.73 1013.94 1014.12 1014.29 1014.48 1014.70 1014.94 1015.21 1015.51 1015.81 1016.12
1012.93 1012.91 1012.91 1012.93 1012.93 1012.91 1012.84 1012.69 1012.46 1012.16 1011.82 1011.46 1011.14 1010.87 1010.70 1010.62 1010.63 1010.69 1010.77 1010.85 1010.92 1010.98 1011.03 1011.10 1011.23 1011.43 1011.70 1012.03 1012.41 1012.80 1013.18 1013.52 1013.81 1014.06 1014.28 1014.48 1014.69 1014.92 1015.17 1015.45 1015.74 1016.03 1016.33
1012.96 1012.95 1012.98 1013.04 1013.11 1013.14 1013.11 1013.00 1012.79 1012.49 1012.13 1011.76 1011.43 1011.17 1011.00 1010.93 1010.94 1011.00 1011.06 1011.12 1011.14 1011.14 1011.13 1011.14 1011.22 1011.37 1011.62 1011.94 1012.32 1012.73 1013.14 1013.51 1013.84 1014.12 1014.37 1014.60 1014.84 1015.08 1015.34 1015.62 1015.91 1016.20 1016.48
1013.01 1012.99 1013.04 1013.14 1013.25 1013.34 1013.35 1013.26 1013.07 1012.77 1012.42 1012.06 1011.73 1011.48 1011.33 1011.27 1011.28 1011.34 1011.39 1011.42 1011.40 1011.35 1011.28 1011.24 1011.26 1011.37 1011.58 1011.88 1012.25 1012.65 1013.06 1013.45 1013.80 1014.11 1014.38 1014.64 1014.90 1015.16 1015.44 1015.72 1016.00 1016.28 1016.55
1013.03 1013.01 1013.08 1013.20 1013.35 1013.47 1013.51 1013.45 1013.27 1012.99 1012.65 1012.30 1011.99 1011.77 1011.64 1011.60 1011.64 1011.70 1011.74 1011.75 1011.70 1011.61 1011.49 1011.40 1011.37 1011.43 1011.59 1011.85 1012.19 1012.57 1012.97 1013.35 1013.70 1014.02 1014.31 1014.59 1014.86 1015.14 1015.43 1015.73 1016.01 1016.29 1016.55
1013.02 1013.00 1013.07 1013.21 1013.37 1013.51 1013.57 1013.53 1013.37 1013.11 1012.80 1012.48 1012.21 1012.02 1011.93 1011.92 1011.98 1012.05 1012.10 1012.10 1012.03 1011.90 1011.75 1011.62 1011.54 1011.55 1011.67 1011.88 1012.16 1012.50 1012.86 1013.21 1013.55 1013.86 1014.15 1014.44 1014.73 1015.03 1015.33 1015.64 1015.93 1016.21 1016.48
1012.94 1012.92 1013.00 1013.14 1013.31 1013.46 1013.54 1013.51 1013.38 1013.15 1012.87 1012.60 1012.37 1012.23 1012.18 1012.21 1012.29 1012.38 1012.44 1012.43 1012.35 1012.21 1012.04 1011.87 1011.76 1011.72 1011.78 1011.94 1012.17 1012.45 1012.75 1013.06 1013.36 1013.65 1013.94 1014.22 1014.52 1014.83 1015.15 1015.47 1015.77 1016.06 1016.32
1012.79 1012.77 1012.84 1012.99 1013.16 1013.32 1013.41 1013.40 1013.30 1013.11 1012.88 1012.66 1012.49 1012.39 1012.38 1012.45 1012.55 1012.66 1012.72 1012.71 1012.63 1012.49 1012.31 1012.13 1011.99 1011.92 1011.93 1012.03 1012.20 1012.41 1012.66 1012.91 1013.17 1013.43 1013.69 1013.97 1014.26 1014.58 1014.90 1015.23 1015.54 1015.84 1016.11
1012.56 1012.54 1012.62 1012.76 1012.94 1013.10 1013.20 1013.22 1013.16 1013.02 1012.85 1012.68 1012.56 1012.51 1012.53 1012.62 1012.74 1012.85 1012.91 1012.91 1012.83 1012.69 1012.51 1012.33 1012.18 1012.09 1012.08 1012.13 1012.24 1012.40 1012.59 1012.79 1012.99 1013.21 1013.45 1013.71 1013.99 1014.30 1014.63 1014.95 1015.27 1015.56 1015.83
1012.28 1012.26 1012.33 1012.47 1012.64 1012.81 1012.93 1012.98 1012.96 1012.88 1012.77 1012.65 1012.58 1012.57 1012.61 1012.70 1012.82 1012.92 1012.98 1012.98 1012.91 1012.78 1012.62 1012.46 1012.32 1012.23 1012.20 1012.23 1012.30 1012.42 1012.55 1012.70 1012.86 1013.04 1013.25 1013.48 1013.75 1014.04 1014.35 1014.67 1014.97 1015.25 1015.51
1011.99 1011.96 1012.01 1012.14 1012.30 1012.47 1012.61 1012.70 1012.72 1012.69 1012.63 1012.57 1012.54 1012.54 1012.59 1012.67 1012.77 1012.85 1012.90 1012.89 1012.83 1012.73 1012.60 1012.48 1012.37 1012.30 1012.28 1012.30 1012.36 1012.44 1012.55 1012.66 1012.79 1012.93 1013.11 1013.32 1013.56 1013.82 1014.11 1014.40 1014.68 1014.94 1015.18
1011.74 1011.68 1011.70 1011.80 1011.95 1012.11 1012.25 1012.36 1012.43 1012.45 1012.43 1012.41 1012.40 1012.42 1012.45 1012.51 1012.58 1012.63 1012.66 1012.65 1012.61 1012.54 1012.46 1012.38 1012.32 1012.30 1012.30 1012.34 1012.40 1012.48 1012.56 1012.66 1012.77 1012.89 1013.04 1013.22 1013.43 1013.67 1013.92 1014.18 1014.42 1014.65 1014.86
1011.59 1011.48 1011.45 1011.49 1011.60 1011.73 1011.87 1011.99 1012.07 1012.13 1012.15 1012.15 1012.15 1012.16 1012.18 1012.21 1012.24 1012.27 1012.28 1012.28 1012.26 1012.23 1012.20 1012.19 1012.19 1012.22 1012.27 1012.33 1012.41 1012.50 1012.58 1012.68 1012.78 1012.89 1013.03 1013.20 1013.38 1013.59 1013.80 1014.02 1014.22 1014.41 1014.59
1011.58 1011.39 1011.28 1011.25 1011.28 1011.36 1011.46 1011.57 1011.66 1011.72 1011.76 1011.77 1011.78 1011.77 1011.77 1011.78 1011.78 1011.79 1011.80 1011.81 1011.83 1011.85 1011.88 1011.93 1012.00 1012.08 1012.17 1012.28 1012.38 1012.48 1012.58 1012.69 1012.79 1012.92 1013.06 1013.22 1013.39 1013.57 1013.75 1013.93 1014.10 1014.25 1014.39
1011.73 1011.44 1011.23 1011.09 1011.03 1011.03 1011.07 1011.13 1011.19 1011.24 1011.27 1011.28 1011.27 1011.26 1011.24 1011.23 1011.22 1011.23 1011.26 1011.30 1011.36 1011.43 1011.53 1011.64 1011.77 1011.90 1012.03 1012.16 1012.29 1012.41 1012.53 1012.65 1012.78 1012.92 1013.08 1013.24 1013.42 1013.59 1013.75 1013.91 1014.04 1014.16 1014.27
1012.03 1011.63 1011.30 1011.04 1010.86 1010.75 1010.70 1010.68 1010.69 1010.70 1010.70 1010.69 1010.67 1010.64 1010.61 1010.60 1010.60 1010.63 1010.68 1010.77 1010.89 1011.03 1011.18 1011.35 1011.52 1011.69 1011.85 1012.00 1012.14 1012.28 1012.41 1012.55 1012.71 1012.88 1013.06 1013.25 1013.44 1013.62 1013.78 1013.92 1014.04 1014.14 1014.23
1012.43 1011.93 1011.47 1011.09 1010.78 1010.55 1010.38 1010.27 1010.20 1010.14 1010.09 1010.04 1009.99 1009.95 1009.92 1009.91 1009.94 1010.00 1010.11 1010.25 1010.43 1010.63 1010.85 1011.06 1011.27 1011.46 1011.63 1011.79 1011.93 1012.07 1012.21 1012.37 1012.55 1012.76 1012.98 1013.20 1013.43 1013.64 1013.82 1013.96 1014.08 1014.17 1014.24
1012.87 1012.28 1011.72 1011.22 1010.78 1010.43 1010.14 1009.92 1009.74 1009.60 1009.48 1009.38 1009.29 1009.22 1009.19 1009.19 1009.24 1009.35 1009.51 1009.72 1009.97 1010.23 1010.50 1010.76 1010.99 1011.20 1011.37 1011.52 1011.65 1011.79 1011.94 1012.12 1012.33 1012.57 1012.83 1013.11 1013.37 1013.62 1013.83 1014.00 1014.13 1014.23 1014.30
1013.28 1012.63 1011.99 1011.39 1010.86 1010.39 1009.99 1009.65 1009.36 1009.12 1008.91 1008.73 1008.59 1008.48 1008.43 1008.44 1008.52 1008.67 1008.88 1009.15 1009.46 1009.79 1010.11 1010.41 1010.66 1010.88 1011.05 1011.20 1011.33 1011.46 1011.62 1011.81 1012.05 1012.32 1012.63 1012.96 1013.27 1013.57 1013.82 1014.02 1014.17 1014.28 1014.36
1013.58 1012.90 1012.23 1011.57 1010.96 1010.41 1009.91 1009.46 1009.07 1008.72 1008.40 1008.14 1007.92 1007.76 1007.67 1007.66 1007.75 1007.93 1008.18 1008.51 1008.87 1009.25 1009.62 1009.96 1010.25 1010.48 1010.67 1010.82 1010.95 1011.09 1011.26 1011.48 1011.74 1012.05 1012.40 1012.77 1013.14 1013.48 1013.77 1014.01 1014.19 1014.32 1014.41
1013.73 1013.06 1012.38 1011.71 1011.07 1010.46 1009.89 1009.35 1008.86 1008.40 1007.98 1007.61 1007.29 1007.06 1006.91 1006.86 1006.93 1007.11 1007.39 1007.74 1008.15 1008.58 1009.00 1009.38 1009.72 1009.99 1010.21 1010.39 1010.55 1010.71 1010.91 1011.15 1011.44 1011.79 1012.17 1012.58 1012.98 1013.36 1013.69 1013.97 1014.18 1014.33 1014.44
1013.69 1013.07 1012.42 1011.78 1011.14 1010.51 1009.89 1009.30 1008.72 1008.16 1007.64 1007.15 1006.73 1006.39 1006.16 1006.05 1006.06 1006.21 1006.48 1006.84 1007.28 1007.74 1008.21 1008.65 1009.05 1009.38 1009.66 1009.90 1010.12 1010.33 1010.57 1010.85 1011.17 1011.55 1011.96 1012.39 1012.82 1013.22 1013.59 1013.89 1014.13 1014.31 1014.43
1013.47 1012.91 1012.32 1011.73 1011.12 1010.51 1009.89 1009.26 1008.62 1007.98 1007.36 1006.77 1006.23 1005.78 1005.44 1005.23 1005.17 1005.26 1005.49 1005.83 1006.27 1006.76 1007.28 1007.78 1008.26 1008.68 1009.05 1009.38 1009.67 1009.96 1010.26 1010.59 1010.95 1011.35 1011.78 1012.22 1012.66 1013.08 1013.46 1013.78 1014.05 1014.25 1014.39
1013.10 1012.60 1012.09 1011.56 1011.01 1010.43 1009.82 1009.18 1008.51 1007.82 1007.12 1006.43 1005.79 1005.23 1004.77 1004.45 1004.29 1004.29 1004.45 1004.75 1005.18 1005.68 1006.24 1006.81 1007.37 1007.89 1008.38 1008.82 1009.22 1009.60 1009.98 1010.36 1010.76 1011.18 1011.62 1012.06 1012.50 1012.92 1013.31 1013.65 1013.93 1014.16 1014.33
Thickness
5736 5734 5733 5731 5729 5728 5726 5725 5725 5725 5725 5726 5727 5728 5729 5731 5732 5733 5733 5734 5735 5736 5738 5739 5741 5743 5744 5745 5746 5747 5749 5749 5750 5750 5751 5751 5752 5753 5754 5754 5755 5756 5756
5734 5732 5729 5727 5726 5724 5722 5721 5720 5720 5720 5721 5721 5723 5724 5726 5728 5729 5729 5731 5732 5734 5735 5737 5739 5740 5742 5743 5744 5745 5746 5747 5747 5748 5748 5748 5749 5750 5751 5752 5753 5753 5754
5732 5729 5725 5723 5721 5720 5718 5716 5715 5715 5714 5715 5716 5718 5719 5721 5723 5724 5726 5728 5729 5731 5733 5735 5737 5738 5740 5741 5742 5743 5744 5745 5745 5746 5746 5746 5747 5747 5748 5749 5750 5751 5752
5729 5726 5722 5719 5718 5715 5713 5711 5709 5708 5707 5708 5709 5711 5714 5716 5719 5721 5723 5726 5727 5729 5731 5733 5735 5736 5738 5739 5741 5741 5742 5743 5743 5744 5744 5744 5744 5745 5745 5746 5748 5749 5749
5725 5723 5719 5717 5714 5711 5709 5707 5705 5703 5701 5701 5704 5706 5708 5710 5714 5717 5720 5723 5725 5727 5729 5731 5733 5734 5736 5737 5738 5740 5740 5741 5741 5742 5742 5743 5743 5743 5744 5745 5746 5747 5747
5722 5720 5717 5714 5711 5707 5704 5702 5700 5699 5697 5697 5700 5702 5704 5707 5710 5712 5715 5719 5722 5724 5726 5728 5730 5732 5733 5735 5736 5737 5739 5739 5740 5740 5741 5741 5742 5742 5743 5743 5744 5745 5745
5720 5717 5714 5711 5708 5704 5701 5699 5696 5694 5693 5694 5692 5692 5698 5703 5705 5708 5711 5714 5717 5720 5723 5726 5728 5730 5731 5733 5734 5736 5737 5738 5739 5739 5740 5740 5741 5741 5741 5742 5742 5743 5743
5718 5715 5712 5709 5706 5703 5699 5696 5694 5689 5688 5690 5687 5683 5682 5688 5697 5704 5707 5709 5712 5716 5719 5722 5725 5728 5729 5731 5732 5734 5735 5736 5737 5738 5738 5739 5739 5740 5740 5740 5741 5741 5742
5717 5713 5710 5707 5705 5702 5697 5695 5692 5688 5683 5685 5686 5681 5675 5675 5684 5694 5701 5705 5707 5709 5713 5719 5722 5725 5727 5729 5730 5731 5733 5734 5735 5736 5737 5737 5738 5739 5739 5739 5739 5740 5740
5717 5713 5710 5707 5704 5701 5698 5695 5692 5688 5683 5680 5682 5683 5682 5681 5677 5679 5690 5698 5703 5705 5708 5714 5718 5720 5723 5725 5726 5728 5730 5732 5733 5734 5735 5736 5737 5737 5737 5738 5738 5739 5739
5716 5713 5710 5707 5703 5701 5698 5695 5691 5687 5684 5680 5678 5678 5679 5680 5680 5676 5677 5685 5693 5700 5704 5708 5712 5715 5719 5721 5723 5725 5727 5729 5730 5731 5733 5734 5735 5735 5736 5736 5737 5737 5738
5715 5713 5710 5706 5703 5700 5697 5694 5691 5688 5685 5682 5680 5678 5676 5675 5675 5676 5675 5679 5683 5691 5699 5703 5707 5711 5714 5717 5719 5721 5723 5725 5726 5728 5730 5731 5732 5733 5734 5734 5735 5735 5736
5712 5711 5709 5705 5702 5700 5698 5695 5692 5689 5686 5683 5681 5679 5678 5678 5678 5678 5676 5677 5680 5687 5693 5698 5703 5707 5710 5712 5714 5717 5719 5721 5723 5724 5726 5727 5729 5730 5731 5732 5733 5733 5734
5711 5710 5708 5705 5702 5700 5698 5695 5691 5689 5688 5685 5683 5681 5679 5679 5680 5679 5677 5676 5674 5679 5685 5691 5698 5703 5706 5708 5711 5712 5714 5717 5718 5720 5721 5723 5725 5726 5727 5729 5729 5730 5731
5712 5710 5707 5704 5702 5700 5698 5695 5691 5689 5687 5685 5684 5682 5680 5680 5681 5681 5680 5678 5674 5671 5676 5685 5691 5698 5702 5704 5706 5708 5710 5712 5714 5716 5717 5719 5720 5722 5723 5724 5725 5726 5727
5709 5707 5706 5703 5701 5699 5697 5694 5691 5689 5687 5685 5684 5682 5681 5680 5680 5680 5680 5680 5679 5675 5674 5682 5688 5694 5698 5701 5702 5704 5706 5708 5709 5711 5713 5714 5716 5717 5719 5720 5721 5722 5723
5707 5705 5704 5702 5700 5698 5696 5693 5690 5688 5686 5684 5684 5683 5681 5681 5680 5679 5679 5679 5678 5677 5674 5679 5686 5690 5693 5695 5697 5699 5701 5703 5704 5706 5708 5709 5711 5712 5714 5715 5716 5717 5718
5703 5702 5701 5699 5698 5696 5694 5692 5689 5687 5685 5683 5683 5682 5681 5681 5680 5679 5678 5678 5678 5679 5676 5674 5679 5684 5687 5691 5693 5694 5697 5698 5700 5701 5703 5704 5706 5707 5708 5709 5711 5712 5713
5697 5697 5697 5696 5695 5693 5692 5691 5689 5687 5685 5684 5683 5681 5680 5679 5677 5677 5677 5677 5677 5678 5677 5675 5676 5680 5683 5686 5687 5689 5691 5693 5694 5695 5697 5698 5700 5701 5703 5704 5705 5706 5707
5690 5690 5691 5691 5691 5690 5689 5688 5687 5685 5684 5683 5683 5681 5680 5678 5676 5676 5676 5675 5675 5674 5674 5673 5673 5675 5678 5681 5682 5681 5682 5686 5688 5691 5691 5692 5694 5696 5697 5698 5699 5700 5701
5684 5684 5684 5684 5685 5685 5685 5683 5681 5681 5680 5680 5680 5680 5679 5677 5676 5675 5674 5672 5672 5671 5670 5669 5669 5671 5672 5674 5675 5677 5677 5679 5682 5685 5685 5687 5688 5689 5690 5691 5692 5694 5695
5676 5676 5676 5676 5677 5678 5678 5677 5676 5675 5675 5675 5675 5676 5676 5675 5674 5672 5672 5671 5670 5668 5667 5666 5667 5667 5670 5672 5674 5674 5673 5673 5672 5679 5679 5679 5683 5683 5684 5685 5686 5687 5688
5667 5667 5667 5667 5668 5669 5671 5671 5670 5669 5668 5670 5671 5671 5673 5673 5671 5669 5668 5668 5667 5667 5668 5667 5666 5667 5669 5671 5671 5670 5670 5670 5670 5673 5674 5672 5675 5675 5676 5678 5679 5680 5681
5657 5657 5658 5658 5660 5662 5663 5663 5663 5662 5662 5664 5666 5667 5667 5667 5667 5665 5664 5663 5663 5663 5664 5665 5666 5667 5669 5670 5670 5669 5668 5667 5666 5668 5669 5665 5666 5667 5668 5669 5671 5673 5674
5647 5648 5649 5649 5650 5653 5654 5655 5654 5653 5654 5656 5659 5662 5662 5661 5662 5662 5659 5658 5659 5659 5661 5662 5663 5664 5666 5667 5667 5664 5662 5659 5657 5659 5662 5661 5660 5660 5660 5661 5662 5664 5665
5637 5637 5638 5639 5640 5643 5645 5645 5644 5643 5644 5647 5650 5654 5656 5656 5656 5656 5655 5655 5653 5655 5656 5656 5657 5658 5660 5661 5662 5661 5660 5656 5655 5653 5656 5656 5654 5654 5652 5653 5654 5655 5656